Miscellaneous Local Product
Issued by NWS North Platte, NE

Home | Current Version | Previous Version | Text Only | Print | Product List | Glossary On
Versions: 1 2 3 4 5 6 7 8 9 10 11 12 13 14 15 16 17 18 19 20 21 22 23 24 25 26 27 28 29 30 31 32 33 34 35 36 37 38 39 40 41 42 43 44 45 46 47 48 49 50
343
AXUS43 KLBF 032210
MISLBF


WESTERN AND NORTH CENTRAL NEBRASKA HOURLY WEATHER ROUNDUP
NATIONAL WEATHER SERVICE NORTH PLATTE NE
400 PM CST SAT DEC 03 2016

NOTE: "FAIR" INDICATES FEW OR NO CLOUDS BELOW 12,000 FEET WITH NO
SIGNIFICANT WEATHER AND/OR OBSTRUCTIONS TO VISIBILITY.

NOTE: STATIONS NOT REPORTING VARIABLES SUCH AS SKY/WEATHER OR
PRESSURE ARE PROVIDED BY RAWS AND APRS NETWORKS AND ARE NOT UNDER
NATIONAL WEATHER SERVICE QUALITY CONTROL.

...OBSERVATIONS IN AND NEAR THE EASTERN PANHANDLE OF NEBRASKA...

CITY           SKY/WX    TMP DP  RH WIND       PRES   REMARKS
PINE RIDGE     SUNNY     38  19  46 W12       29.91R WCI  30
CHADRON        CLOUDY    41  14  33 W10       29.93R
ALLIANCE       CLOUDY    43  10  26 NW14      29.92R
SIDNEY         SUNNY     43  11  27 NW17      29.95R
CRESCENT LAKE    N/A     44  11  25 NW9G16      N/A
$$

...OBSERVATIONS IN NORTHERN NEBRASKA AND FAR SOUTHERN SOUTH DAKOTA...

CITY           SKY/WX    TMP DP  RH WIND       PRES   REMARKS
WINNER         FAIR      46  24  42 W8        29.91S
VALENTINE      CLEAR     42  12  29 W8        29.89F
THEDFORD       CLEAR     47  15  27 W15       29.93F
AINSWORTH      CLEAR     46  19  33 SW16      29.91S
O`NEILL        MOCLDY    39  32  77 S16G25    30.01S WCI  30
ORD            CLOUDY    37  30  75 S14G24    30.03F WCI  28
BROKEN BOW     MOCLDY    38  31  76 S18G28    29.99F WCI  28
VALENTINE NWR    N/A     46  11  24 W16G25      N/A
BUTTE            N/A     40  32  73 S20G31      N/A  WCI  30
HALSEY           N/A     47  19  32 S9G20       N/A
CHAMBERS         N/A     38  31  74 S3          N/A
EWING            N/A     36  33  88 S10G17      N/A  WCI  28
$$

...OBSERVATIONS IN SOUTHWEST NEBRASKA AND FAR NORTHEAST COLORADO...

CITY           SKY/WX    TMP DP  RH WIND       PRES   REMARKS
WRAY           FAIR      46  21  36 CALM      29.96F
HOLYOKE        FAIR      46  14  27 NW5       29.96S
IMPERIAL       SUNNY     44  24  45 S10       29.96F
OGALLALA       CLOUDY    46  15  28 SW8       29.95S
NORTH PLATTE   SUNNY     44  27  51 S15       29.97F
MCCOOK         CLOUDY    38  31  76 S9        30.01F WCI  31
LEXINGTON      CLOUDY    36  32  85 S12       30.04S WCI  27
STAPLETON        N/A     42  28  56 CALM        N/A
GOTHENBURG       N/A     37  30  77 S10         N/A  WCI  30
CALLAWAY         N/A     38  31  75 S14         N/A  WCI  30
$$

...OBSERVATIONS IN CENTRAL LINCOLN COUNTY AREA...

CITY           SKY/WX    TMP DP  RH WIND       PRES   REMARKS
N.P. AIRPORT   SUNNY     44  27  51 S15       29.97F
N.P. DOWNTOWN    N/A     43  29  58 S6G15       N/A
N.P. SOUTHEAST   N/A     43  29  57 S10G18      N/A
N.P. HILLCREST   N/A     44  30  57 S10         N/A
$$

...SOME OBSERVATIONS FROM AROUND THE REGION...

CITY           SKY/WX    TMP DP  RH WIND       PRES   REMARKS
LARAMIE        CLOUDY    27   7  42 W16       29.95S WCI  15
CHEYENNE       CLOUDY    33  10  38 W30G40    29.93S WCI  19
DENVER         CLOUDY    38  14  37 N5        29.95R WCI  34
AKRON          CLOUDY    42  17  36 N7        29.95R
SCOTTSBLUFF    MOSUNNY   42  13  30 W21G31    29.95R
RAPID CITY     CLOUDY    41  23  48 NW3       29.88S
BISMARCK       CLEAR     27  24  89 S8        29.87F WCI  19
PIERRE         CLEAR     37  27  67 SW7       29.89F WCI  32
SIOUX FALLS    LGT SNOW  35  33  92 S16G22    30.09F FOG     WCI  25
OMAHA          LGT SNOW  33  29  85 SE6       30.19F VSB 1   WCI  28
GRAND ISLAND   LGT SNOW  33  33 100 S6        30.10F FOG     WCI  28
KANSAS CITY    CLOUDY    45  30  55 E9        30.15F
WICHITA        DRIZZLE   44  38  79 SE6       30.10F
OKLAHOMA CITY  CLOUDY    45  42  89 E8        30.06S
DALLAS         DRIZZLE   50  47  89 NE7       29.99R FOG
AMARILLO       CLOUDY    38  37  97 CALM      29.99F FOG
DODGE CITY     LGT RAIN  38  37  97 S7        30.04F WCI  33
HAYS           LGT RAIN  33  32  96 CALM      30.08S FOG
GOODLAND       SUNNY     40  28  62 S7        29.97S
$$




USA.gov is the U.S. government's official web portal to all federal, state and local government web resources and services.